| time (UTC) | temp F | wind direction | speed knots | gust knots | rain 1hr in | rain 24hr in | rain mn in | humidity % | barometer mb |
| 20260502193904 | 78 | 55 | 5.2 | 12.2 | 0.00 | 2.43 | 0.00 | 42 | 1019.1 |
| 20260502193404 | 78 | 349 | 6.1 | 12.2 | 0.00 | 2.43 | 0.00 | 38 | 1019.2 |
| 20260502192906 | 78 | 1 | 6.1 | 12.2 | 0.00 | 2.43 | 0.00 | 39 | 1019.2 |
| 20260502192404 | 77 | 27 | 7.0 | 12.2 | 0.00 | 2.43 | 0.00 | 40 | 1019.3 |
| 20260502191904 | 77 | 334 | 5.2 | 13.0 | 0.00 | 2.43 | 0.00 | 38 | 1019.3 |
| 20260502191404 | 77 | 356 | 4.3 | 13.0 | 0.00 | 2.43 | 0.00 | 40 | 1019.3 |
| 20260502190904 | 77 | 24 | 6.1 | 13.0 | 0.00 | 2.43 | 0.00 | 43 | 1019.3 |
| 20260502185903 | 77 | 67 | 4.3 | 11.3 | 0.00 | 2.43 | 0.00 | 43 | 1019.4 |
| 20260502184404 | 76 | 11 | 4.3 | 11.3 | 0.00 | 2.43 | 0.00 | 45 | 1019.5 |
| 20260502183405 | 76 | 3 | 7.0 | 12.2 | 0.00 | 2.43 | 0.00 | 43 | 1019.6 |
| 20260502182404 | 77 | 33 | 6.1 | 12.2 | 0.00 | 2.43 | 0.00 | 44 | 1019.7 |
| 20260502180905 | 77 | 30 | 5.2 | 13.0 | 0.00 | 2.44 | 0.00 | 45 | 1019.9 |
| 20260502180404 | 77 | 22 | 5.2 | 13.0 | 0.00 | 2.44 | 0.00 | 47 | 1020.1 |
| 20260502170405 | 74 | 33 | 5.2 | 15.6 | 0.00 | 2.71 | 0.00 | 54 | 1020.1 |
| 20260502163905 | 73 | 42 | 6.1 | 13.9 | 0.00 | 3.21 | 0.00 | 55 | 1020.1 |
| 20260502163403 | 73 | 19 | 4.3 | 12.2 | 0.00 | 3.21 | 0.00 | 58 | 1020.1 |
| 20260502162404 | 72 | 27 | 6.1 | 13.9 | 0.00 | 3.21 | 0.00 | 58 | 1020.1 |
| 20260502161904 | 72 | 36 | 4.3 | 10.4 | 0.00 | 3.21 | 0.00 | 61 | 1020.1 |
| 20260502161405 | 71 | 30 | 4.3 | 10.4 | 0.00 | 3.21 | 0.00 | 62 | 1020.0 |
| 20260502160904 | 71 | 12 | 7.0 | 13.0 | 0.00 | 3.21 | 0.00 | 61 | 1020.0 |
| 20260502160404 | 70 | 41 | 6.1 | 13.0 | 0.00 | 3.21 | 0.00 | 62 | 1019.9 |
| 20260502151905 | 68 | 62 | 5.2 | 11.3 | 0.00 | 3.21 | 0.00 | 72 | 1020.0 |
| 20260502151404 | 67 | 11 | 4.3 | 11.3 | 0.00 | 3.21 | 0.00 | 73 | 1020.0 |
| 20260502150903 | 66 | 18 | 5.2 | 11.3 | 0.00 | 3.21 | 0.00 | 73 | 1020.1 |
| 20260502150404 | 66 | 57 | 4.3 | 10.4 | 0.00 | 3.21 | 0.00 | 75 | 1020.1 |
| 20260502130403 | 57 | 41 | 4.3 | 10.4 | 0.00 | 3.27 | 0.00 | 89 | 1018.8 |
| 20260502123404 | 55 | 25 | 3.5 | 10.4 | 0.00 | 3.30 | 0.00 | 89 | 1018.2 |
| 20260502122903 | 55 | 10 | 2.6 | 10.4 | 0.00 | 3.33 | 0.00 | 89 | 1018.2 |
| 20260502121903 | 54 | 14 | 2.6 | 7.8 | 0.00 | 3.48 | 0.00 | 89 | 1018.1 |
| 20260502121404 | 54 | 25 | 3.5 | 7.8 | 0.00 | 3.50 | 0.00 | 89 | 1018.0 |
| 20260502120903 | 54 | 357 | 3.5 | 7.0 | 0.00 | 3.52 | 0.00 | 89 | 1018.0 |
| 20260502115903 | 54 | 4 | 2.6 | 7.8 | 0.00 | 3.56 | 0.00 | 89 | 1018.0 |
| 20260502115405 | 54 | 0 | 2.6 | 8.7 | 0.00 | 3.59 | 0.00 | 89 | 1017.9 |
| 20260502114903 | 54 | 5 | 4.3 | 8.7 | 0.00 | 3.59 | 0.00 | 89 | 1017.8 |
| 20260502113904 | 54 | 2 | 5.2 | 8.7 | 0.00 | 3.59 | 0.00 | 89 | 1017.6 |
| 20260502113404 | 54 | 16 | 3.5 | 10.4 | 0.00 | 3.59 | 0.00 | 89 | 1017.6 |
| 20260502112903 | 54 | 0 | 3.5 | 10.4 | 0.00 | 3.59 | 0.00 | 89 | 1017.6 |
| 20260501235904 | 60 | 50 | 3.5 | 13.0 | 0.05 | 3.59 | 3.21 | 92 | 1010.5 |
| 20260501235405 | 60 | 41 | 4.3 | 13.9 | 0.06 | 3.59 | 3.21 | 92 | 1010.4 |
| 20260501234904 | 60 | 11 | 8.7 | 13.9 | 0.05 | 3.58 | 3.20 | 92 | 1010.4 |
| 20260501234404 | 60 | 4 | 8.7 | 13.9 | 0.05 | 3.58 | 3.20 | 92 | 1010.6 |
| 20260501233904 | 61 | 14 | 6.1 | 13.9 | 0.05 | 3.58 | 3.20 | 92 | 1010.6 |
| 20260501233404 | 60 | 357 | 4.3 | 13.0 | 0.05 | 3.58 | 3.20 | 92 | 1010.1 |
| 20260501232904 | 61 | 9 | 5.2 | 13.0 | 0.05 | 3.57 | 3.19 | 92 | 1009.9 |
| 20260501232404 | 61 | 37 | 5.2 | 11.3 | 0.05 | 3.57 | 3.19 | 92 | 1009.7 |
| 20260501231404 | 61 | 34 | 5.2 | 13.0 | 0.05 | 3.56 | 3.18 | 92 | 1009.5 |
| 20260501230405 | 61 | 28 | 4.3 | 8.7 | 0.05 | 3.54 | 3.16 | 92 | 1010.0 |
| 20260501225904 | 61 | 6 | 3.5 | 8.7 | 0.06 | 3.54 | 3.16 | 92 | 1010.3 |
| 20260501225404 | 61 | 71 | 4.3 | 8.7 | 0.05 | 3.53 | 3.15 | 92 | 1010.3 |
| 20260501224404 | 61 | 32 | 4.3 | 10.4 | 0.06 | 3.53 | 3.15 | 92 | 1010.3 |
| 20260501223904 | 62 | 55 | 4.3 | 10.4 | 0.07 | 3.53 | 3.15 | 92 | 1010.0 |
| 20260501223404 | 62 | 64 | 4.3 | 11.3 | 0.09 | 3.53 | 3.15 | 92 | 1009.8 |
| 20260501222905 | 62 | 74 | 6.1 | 11.3 | 0.10 | 3.52 | 3.14 | 92 | 1009.9 |
| 20260501222404 | 62 | 62 | 5.2 | 12.2 | 0.11 | 3.52 | 3.14 | 92 | 1010.0 |
| 20260501221903 | 62 | 73 | 5.2 | 12.2 | 0.14 | 3.51 | 3.13 | 92 | 1010.5 |
| 20260501221405 | 62 | 15 | 3.5 | 10.4 | 0.15 | 3.51 | 3.13 | 92 | 1010.9 |
| 20260501220404 | 62 | 33 | 3.5 | 8.7 | 0.21 | 3.49 | 3.11 | 92 | 1010.8 |
| 20260501215904 | 62 | 9 | 2.6 | 7.0 | 0.26 | 3.48 | 3.10 | 92 | 1011.1 |
| 20260501214904 | 62 | 61 | 3.5 | 8.7 | 0.31 | 3.47 | 3.09 | 92 | 1010.5 |
| 20260501214405 | 62 | 37 | 2.6 | 10.4 | 0.38 | 3.47 | 3.09 | 92 | 1010.2 |
| 20260501213904 | 62 | 68 | 4.3 | 10.4 | 0.38 | 3.46 | 3.08 | 92 | 1009.8 |
| 20260501213404 | 62 | 51 | 4.3 | 10.4 | 0.37 | 3.44 | 3.06 | 92 | 1009.3 |
| 20260501212405 | 62 | 87 | 4.3 | 8.7 | 0.39 | 3.41 | 3.03 | 92 | 1009.8 |
| 20260501211904 | 62 | 52 | 3.5 | 10.4 | 0.47 | 3.37 | 2.99 | 92 | 1009.7 |
| 20260501210904 | 63 | 32 | 3.5 | 10.4 | 0.61 | 3.34 | 2.96 | 92 | 1009.8 |
| 20260501210404 | 63 | 51 | 5.2 | 10.4 | 0.58 | 3.28 | 2.90 | 92 | 1010.0 |
| 20260501205905 | 63 | 17 | 0.9 | 10.4 | 0.55 | 3.22 | 2.84 | 92 | 1010.2 |
| 20260501205404 | 63 | 40 | 2.6 | 10.4 | 0.57 | 3.20 | 2.82 | 92 | 1010.1 |
| 20260501204905 | 63 | 29 | 4.3 | 10.4 | 0.63 | 3.16 | 2.78 | 92 | 1010.0 |
| 20260501203404 | 63 | 51 | 5.2 | 13.9 | 0.90 | 3.07 | 2.69 | 92 | 1009.0 |
| 20260501202903 | 63 | 55 | 5.2 | 13.9 | 0.91 | 3.07 | 2.69 | 92 | 1008.9 |
| 20260501202404 | 63 | 78 | 5.2 | 12.2 | 0.86 | 3.02 | 2.64 | 92 | 1008.7 |
| 20260501201905 | 63 | 52 | 5.2 | 12.2 | 0.75 | 2.90 | 2.52 | 92 | 1008.3 |
| 20260501201404 | 63 | 30 | 3.5 | 8.7 | 0.68 | 2.80 | 2.42 | 92 | 1009.2 |
| 20260501200904 | 63 | 15 | 2.6 | 6.1 | 0.63 | 2.73 | 2.35 | 92 | 1009.0 |
| 20260501200404 | 63 | 34 | 1.7 | 7.0 | 0.61 | 2.70 | 2.32 | 92 | 1009.1 |
| 20260501195904 | 63 | 57 | 1.7 | 7.0 | 0.58 | 2.67 | 2.29 | 92 | 1009.4 |
| 20260501195404 | 63 | 105 | 0.9 | 8.7 | 0.56 | 2.63 | 2.25 | 92 | 1009.1 |
| 20260501194905 | 63 | 80 | 4.3 | 8.7 | 0.48 | 2.53 | 2.15 | 92 | 1008.5 |
| 20260501194404 | 63 | 103 | 4.3 | 7.8 | 0.28 | 2.33 | 1.95 | 92 | 1008.5 |